Погода в Мухтолово

Россия / Нижегородская область     55°27′57″N   43°11′46″E
темп.,
°C
ветер,
м/с
пор.,
м/с
влажн.,
%
обл.,
%
осадки,
мм/ч
давл.,
гПа
погр.,
м
11 апреля, вс
вс1100:00−2в119946 0.0 102717
03:00−2ссв119843 0.0 102820
06:00−1св11895 0.0 102917
09:00+6вюв115889 0.0 1030274
12:00+10ссв124599 0.0 1030838
15:00+11всв2244100 0.0 10311091
18:00+8в2368100 0.0 103255
21:00+5в2481100 0.0 103380
12 апреля, пн
пн1200:00+3всв3583100 0.0 1034101
03:00+2всв398576 0.0 1035188
06:00+3всв41278100 0.0 1034358
09:00+3всв51283100 0.3 1035378
12:00+8в5977100 0.2 1034454
15:00+9в5983100 0.2 1032555
18:00+9в499295 0.0 1031421
21:00+7в41097100 0.0 1031224
13 апреля, вт
вт1300:00+7вюв31095100 0.0 1030180
03:00+7юв389223 0.0 1029127
06:00+7юв399022 0.0 1029154
09:00+13ююв4965100 0.0 1028371
12:00+17ю574716 0.0 1027961
15:00+18ю573424 0.0 10261434
18:00+15ююв385128 0.0 1025187
21:00+11ююв3106850 0.0 1025169
14 апреля, ср
ср1400:00+9ю311744 0.0 1025197
03:00+8ю310775 0.0 1024165
06:00+8ююв31074100 0.0 1024195
09:00+14ю4954100 0.0 1023346
12:00+18ю5740100 0.0 1022746
15:00+20ю573473 0.0 10211456
18:00+16ююв3849100 0.0 1020173
21:00+12ю3962100 0.0 1020148
15 апреля, чт
чт1500:00+10ю386998 0.0 1020127
03:00+9ююз2571100 0.0 101980
06:00+8ююз227386 0.0 101833
09:00+13ююз345796 0.0 1017289
12:00+17зюз2344100 0.0 1016932
15:00+18юз2440100 0.0 10141777
18:00+12ссз5983100 0.1 1014368
21:00+8с4794100 4.1 1014354